Theta_e
309 312 312 315 316 315 313 311 311 311 311 314 316 316 320 320 314 316 327 331 333 334 331 331 331 329 327 326 325 324 322 321 320 319 319 318 317 316 315 315 314 313 312 312 312 311 311 311 310 309 308 307 307 307 306 305 305 304 304 304 304 303 303 302 302 301 300 299 299 299 299 299 299 299 299 299 299 299 299 299 298 298 297 298 298 298 298
314 316 316 318 320 321 320 317 315 313 312 314 315 315 320 321 318 324 331 332 331 330 329 330 329 327 325 324 323 323 322 321 320 319 319 318 317 316 315 314 313 312 311 311 311 311 310 310 309 307 306 306 306 306 305 305 304 304 304 303 303 302 301 301 301 300 299 298 298 299 299 298 298 298 298 299 298 298 298 298 297 297 297 297 297 297 297
316 317 317 318 319 322 324 322 319 316 312 312 313 314 319 320 321 327 330 332 333 329 327 329 327 325 325 323 323 322 321 320 320 319 318 317 315 315 314 313 312 311 311 311 310 310 309 309 307 306 305 305 305 305 304 304 303 303 303 302 301 300 300 299 299 299 298 298 297 298 298 298 298 298 298 298 298 298 297 297 297 297 297 296 297 297 297
316 318 317 318 320 321 322 323 321 316 312 314 314 316 320 318 321 328 328 329 331 328 326 327 326 324 324 323 322 321 320 319 319 319 318 316 315 314 313 312 311 310 310 310 310 309 308 307 306 305 305 304 304 303 303 302 302 302 302 301 299 298 298 298 298 298 298 297 297 298 298 297 297 297 297 298 297 297 297 296 296 296 296 296 296 296 297
315 318 318 319 320 319 319 322 321 319 319 321 319 319 321 319 321 326 324 323 328 327 326 327 326 324 323 322 321 320 319 319 319 318 317 315 314 313 312 311 310 310 310 309 309 308 307 306 305 304 304 303 303 302 302 301 301 301 300 299 297 297 297 297 297 297 296 296 296 297 297 297 297 296 297 297 297 296 296 296 296 296 296 296 296 296 297
315 319 319 319 319 319 319 319 317 318 321 321 319 320 321 322 324 324 323 325 328 326 325 326 325 324 323 322 321 319 319 319 318 317 315 314 313 312 311 310 310 309 309 308 307 307 306 305 304 303 303 302 301 301 301 300 299 299 297 296 296 296 296 296 296 296 296 295 296 297 297 297 296 296 296 296 296 296 296 296 295 295 295 295 296 296 296
316 319 318 317 318 319 319 317 316 317 318 318 319 320 320 321 322 324 325 326 326 326 325 325 324 323 322 321 320 319 318 318 317 316 314 314 313 311 310 309 309 308 308 307 306 305 304 303 302 302 301 301 300 300 299 298 298 297 296 296 296 295 295 295 295 295 295 295 296 296 297 297 296 296 296 296 296 296 296 295 295 295 295 295 295 296 296
315 318 316 316 318 318 318 318 317 317 318 319 319 320 320 319 319 321 325 325 325 326 325 323 322 321 321 320 319 319 317 316 316 315 314 313 312 311 310 309 308 308 307 306 305 304 302 301 301 300 299 299 299 299 298 297 296 295 295 295 295 295 295 295 295 295 295 295 295 296 296 296 296 296 296 296 296 296 295 295 295 295 295 295 295 296 296
315 318 317 317 319 320 321 322 320 319 321 321 320 319 321 320 318 320 324 325 325 324 322 320 319 318 319 319 319 318 316 316 315 314 313 313 311 310 310 308 307 306 305 304 303 302 301 300 299 299 298 298 298 297 296 295 295 294 295 295 295 295 295 295 295 295 295 295 295 296 296 296 296 296 296 296 295 295 295 295 295 295 295 295 295 296 296
313 318 318 317 318 319 321 322 321 319 320 320 319 319 322 321 318 319 323 324 324 322 320 319 318 318 320 321 319 317 316 314 313 313 312 311 310 309 308 307 306 305 304 303 302 300 299 298 298 298 298 298 297 295 295 294 294 295 295 295 295 295 295 295 294 294 295 295 295 295 295 295 296 296 295 296 295 295 295 295 295 295 296 296 295 295 295
314 317 318 317 318 319 320 320 318 318 319 318 318 319 322 323 319 319 322 322 321 320 319 319 319 321 323 323 318 315 314 313 311 310 310 310 309 308 307 306 305 304 303 302 300 299 298 298 297 297 297 296 296 295 295 295 295 295 295 295 295 295 294 294 294 294 294 294 294 295 295 295 295 295 295 295 295 295 295 295 295 295 295 295 295 295 295
315 316 316 316 316 319 319 317 316 316 316 317 318 319 321 322 320 320 321 321 320 319 319 319 321 323 324 322 317 313 312 311 310 309 309 309 308 307 306 305 305 304 303 302 300 299 298 298 298 297 296 296 295 295 295 296 296 295 295 294 294 294 294 294 294 294 294 294 294 294 294 294 294 294 295 294 294 294 295 295 295 295 295 295 295 295 295
316 316 316 315 315 317 317 316 316 316 315 317 320 320 319 319 321 321 320 321 320 319 319 320 321 322 320 317 313 310 309 309 309 309 308 308 307 306 305 304 304 303 303 302 301 300 299 299 298 297 296 296 296 296 296 296 296 295 294 294 294 294 294 294 294 294 293 293 293 293 293 293 293 293 293 293 293 294 294 295 295 295 295 295 296 295 295
315 316 316 316 316 316 316 315 315 316 319 321 321 317 314 317 320 321 320 320 320 319 320 319 317 315 314 312 309 308 308 307 307 308 307 307 306 306 305 304 303 303 303 303 302 301 299 298 298 297 297 297 297 297 297 296 295 294 294 294 294 294 294 294 294 294 293 293 293 293 292 292 292 292 292 292 292 293 294 294 294 294 295 295 295 295 295
314 315 317 318 317 317 316 316 317 317 319 321 318 314 313 317 320 320 320 319 319 319 317 314 312 311 311 310 308 308 307 306 307 307 306 306 305 305 304 304 303 304 304 303 302 301 299 299 298 297 297 297 297 297 297 296 295 294 294 294 294 294 294 294 294 294 294 293 293 293 293 292 292 293 292 292 292 292 293 294 295 295 295 295 295 295 295
315 317 318 319 318 317 316 317 319 319 317 314 313 315 317 318 319 319 319 319 319 317 314 311 311 311 310 309 308 307 306 306 306 306 306 305 305 304 304 304 303 304 303 302 301 300 299 298 298 297 297 298 298 298 296 295 295 295 295 295 295 295 294 294 294 294 294 294 293 293 293 293 293 293 293 293 293 293 293 294 295 294 295 295 295 295 295
316 317 318 316 313 311 311 311 312 314 312 310 311 316 318 318 318 318 318 319 318 314 311 310 311 310 309 308 308 307 306 306 305 305 305 305 305 304 304 304 304 303 302 301 300 299 299 298 298 298 297 298 298 297 296 295 295 296 295 295 296 295 295 295 294 294 294 293 293 293 293 293 294 294 294 294 294 294 294 294 294 294 294 294 295 295 295
315 314 314 311 309 310 310 308 307 308 309 310 312 316 318 317 317 317 317 317 315 311 310 311 310 309 308 308 307 306 306 305 305 305 305 304 304 304 304 304 303 302 301 300 300 300 299 298 298 298 298 298 298 297 296 296 296 296 296 296 296 296 296 296 295 295 295 294 294 294 293 293 294 294 294 295 295 295 295 295 295 294 294 294 294 295 295
316 316 313 309 309 309 308 308 308 308 309 310 312 315 317 316 316 316 316 314 311 309 310 310 309 308 307 307 307 306 305 305 305 305 305 304 304 304 304 303 302 301 301 300 300 300 300 299 298 298 298 298 297 297 296 296 296 296 296 296 296 296 296 296 296 296 296 295 295 294 294 294 294 294 294 295 295 295 295 295 295 295 294 294 294 294 294
317 317 312 307 307 307 305 307 309 309 309 311 311 313 313 313 314 314 312 311 309 309 309 309 308 308 307 306 306 306 304 304 305 305 305 305 305 304 304 302 301 301 301 301 301 301 300 299 299 298 298 298 297 297 297 297 296 296 297 296 297 296 296 296 296 296 296 295 295 295 295 294 295 295 295 295 295 295 294 294 295 295 295 295 294 294 294
315 314 311 308 309 310 308 307 307 307 309 310 311 310 310 311 311 311 310 309 309 309 309 308 308 308 307 306 305 305 304 304 304 305 305 305 304 304 303 302 301 301 301 301 301 301 300 300 299 299 299 298 297 297 297 297 297 297 297 297 297 297 296 296 296 296 296 295 295 295 295 295 295 295 294 295 295 294 293 293 293 294 294 294 294 294 294
317 316 314 312 314 316 313 309 307 307 307 309 310 310 310 310 310 309 309 309 309 308 308 308 308 307 306 306 305 304 304 304 304 304 304 304 304 303 302 302 302 301 301 301 301 301 300 299 299 299 298 298 298 298 298 297 298 298 297 298 298 297 297 297 297 296 296 296 295 295 296 296 295 295 294 294 294 294 294 293 293 293 293 293 293 293 294
316 314 311 310 313 315 311 307 306 306 307 309 310 310 311 311 310 309 309 309 308 308 308 307 307 307 306 306 305 304 304 304 304 304 304 304 303 303 302 302 301 301 301 301 301 300 300 300 299 299 298 298 298 298 298 298 298 298 298 298 298 298 298 298 297 296 297 296 296 296 296 296 296 296 295 294 294 294 294 294 294 293 293 293 292 292 293
312 309 308 308 310 310 307 305 305 305 306 309 310 310 310 310 310 309 309 308 308 308 307 307 307 307 306 306 305 304 304 304 304 304 304 303 303 302 302 302 301 301 301 301 300 300 300 300 299 299 299 298 298 298 298 298 298 298 298 299 299 299 298 298 297 296 296 296 296 296 296 296 296 296 296 296 295 295 294 294 294 294 293 293 293 292 292
309 307 305 305 306 306 304 304 304 305 306 307 308 308 309 309 309 310 309 307 307 307 306 306 306 306 306 306 304 304 304 304 303 303 303 302 302 302 302 302 301 301 301 301 300 300 300 300 300 299 299 299 299 299 299 299 299 299 298 299 299 298 298 297 297 296 296 296 296 297 297 296 296 296 296 296 296 295 295 294 294 294 294 294 293 293 292
306 304 304 304 304 304 305 306 306 305 306 307 307 307 308 308 309 309 308 308 308 307 306 306 306 305 305 305 304 303 303 302 302 302 302 301 301 301 301 301 301 300 300 300 300 301 300 300 300 300 300 300 299 299 299 299 299 299 298 298 298 298 297 297 297 297 297 297 297 297 297 296 296 296 296 296 296 296 296 296 295 295 294 294 294 293 293
305 305 306 307 307 305 305 306 306 305 305 306 307 307 308 308 308 308 308 307 307 306 306 305 305 304 304 304 303 302 301 300 301 301 300 300 300 300 301 301 301 300 301 301 300 301 300 300 300 300 300 300 300 300 300 300 300 300 299 298 298 298 297 297 297 297 297 297 296 297 296 296 296 296 296 296 296 296 296 296 296 296 295 295 294 294 293
305 304 305 308 309 307 304 304 304 304 305 307 307 307 307 307 307 306 307 306 306 306 305 304 304 303 303 302 301 301 300 300 301 300 299 299 300 300 300 301 301 301 301 300 300 300 301 300 301 301 301 301 300 300 300 300 300 300 299 298 297 297 297 297 297 297 296 296 296 296 297 296 296 296 296 296 296 296 296 296 296 296 296 295 295 294 294
304 303 303 305 305 304 303 304 304 305 305 306 307 307 306 306 306 306 306 305 305 305 304 304 303 303 302 302 301 301 301 301 300 300 300 299 300 300 300 300 300 301 300 300 300 301 301 301 301 301 301 300 300 299 299 299 299 299 298 297 297 297 297 297 297 297 296 296 296 296 296 296 296 296 296 296 296 296 296 296 296 296 296 296 295 295 295
303 303 303 304 303 303 304 305 305 305 305 306 306 306 306 306 306 306 305 305 304 304 303 303 303 302 302 302 301 301 301 301 300 300 300 299 299 300 300 300 300 300 300 300 300 300 300 300 300 300 300 299 299 298 298 298 297 297 297 297 297 297 297 297 297 297 297 297 297 296 296 296 296 296 296 296 296 296 296 297 296 296 296 296 296 296 296
303 303 304 304 304 304 305 305 305 305 305 305 305 306 306 306 306 305 305 304 304 303 303 303 302 302 301 301 301 301 301 300 300 300 300 299 299 299 299 299 299 299 299 299 299 300 300 300 300 300 299 298 298 298 297 297 297 297 297 297 297 297 297 297 297 297 297 297 297 297 296 297 296 296 296 296 296 296 297 297 297 297 297 296 296 296 296
304 304 304 304 304 304 305 305 305 305 305 305 305 305 305 305 305 305 305 304 303 303 303 302 302 301 301 301 301 300 300 300 300 299 299 299 299 299 299 299 299 299 299 299 299 299 300 300 300 299 299 298 298 297 297 297 297 297 297 297 297 297 297 297 297 297 297 297 297 297 297 297 297 296 296 296 296 296 297 297 297 297 296 296 296 296 296
306 305 305 305 304 304 305 304 304 305 304 305 305 305 305 305 305 304 304 304 303 303 303 302 301 301 300 300 300 299 299 299 299 298 298 298 298 298 299 299 299 299 300 299 299 300 300 300 300 300 299 299 298 297 297 297 297 297 297 297 297 297 297 297 297 297 297 297 297 297 297 297 296 296 296 296 296 296 296 296 297 297 297 296 296 296 296
307 306 306 305 305 305 305 304 304 304 304 304 304 304 304 304 304 304 303 303 303 303 302 301 301 300 299 299 299 298 298 298 297 297 297 297 298 298 299 299 300 300 300 300 300 300 299 299 299 299 299 299 298 297 298 297 297 297 297 297 297 297 297 297 297 297 297 297 297 297 297 296 296 296 296 296 296 296 296 296 296 296 297 297 296 296 295
304 304 304 304 304 305 304 304 304 304 304 304 304 303 303 304 304 303 303 303 303 302 301 300 300 300 299 298 298 297 297 297 297 296 296 296 297 298 298 298 299 299 299 299 299 299 298 298 298 298 298 298 298 298 297 297 297 298 298 297 297 297 297 297 297 297 297 297 297 297 297 296 296 296 296 296 296 296 295 295 295 295 296 297 297 296 295
304 304 303 304 304 305 304 304 304 304 303 303 303 303 303 303 303 303 302 302 302 301 300 300 299 299 298 298 297 297 297 297 296 295 295 296 297 298 298 298 298 298 298 298 298 298 298 298 298 298 298 298 298 298 297 297 297 297 297 298 298 297 297 297 297 297 297 297 297 297 296 296 296 296 296 296 296 296 295 295 294 294 295 296 297 296 295
304 304 304 303 304 305 304 304 304 303 303 302 303 303 302 302 302 302 302 301 300 300 300 299 299 298 298 297 297 296 297 296 296 295 295 296 296 297 297 297 298 298 298 298 298 297 297 298 298 298 298 298 298 298 298 297 297 297 297 297 297 297 297 297 296 296 296 296 296 296 296 295 295 295 295 295 295 295 295 295 294 294 295 296 296 296 296
304 304 304 304 304 304 304 303 303 302 302 301 301 301 301 301 301 300 300 300 300 300 299 299 299 298 298 297 296 296 296 296 296 295 295 296 296 297 297 297 298 298 298 299 298 298 298 298 298 298 298 298 299 298 297 297 297 297 297 297 297 297 296 296 296 296 296 296 296 296 296 295 295 295 295 295 295 295 295 295 294 294 294 295 296 296 296
303 303 304 304 303 303 303 302 302 302 302 301 301 300 300 300 300 300 299 299 299 299 299 299 298 298 297 297 296 295 295 295 295 295 295 296 297 297 297 298 298 298 298 299 299 298 298 298 298 298 298 299 299 298 297 297 297 297 297 297 297 297 297 296 296 296 296 296 296 296 296 296 295 295 295 295 295 295 295 294 294 293 294 294 295 296 296
303 303 303 303 303 303 302 302 302 302 301 301 300 300 299 299 299 299 298 298 298 298 298 298 297 297 297 297 296 296 295 295 295 296 296 296 297 297 297 297 298 299 299 299 299 299 299 298 298 299 299 299 299 299 298 297 297 296 297 297 297 297 297 296 296 296 296 296 296 296 296 296 295 295 295 295 295 295 295 294 294 294 293 293 294 295 295
303 303 304 303 303 303 302 302 302 301 301 300 300 299 299 299 299 298 298 298 298 298 298 297 297 298 298 297 297 296 295 295 295 296 296 296 297 297 298 298 298 298 298 298 298 298 299 299 299 299 299 299 298 298 298 298 297 297 297 297 297 297 297 297 296 296 296 295 295 295 295 295 295 295 295 295 295 295 295 294 294 294 294 294 294 294 294
303 303 303 303 303 303 302 302 301 301 300 299 299 299 299 299 299 298 298 298 298 298 298 298 298 298 297 297 296 295 294 294 295 296 297 297 298 298 298 298 298 298 298 298 298 298 299 299 299 299 298 298 297 297 298 298 297 297 297 297 297 297 297 297 296 296 296 295 295 295 295 295 295 295 295 295 295 295 295 294 294 294 294 294 294 294 294
303 303 303 303 303 302 302 301 301 301 300 299 299 298 298 298 298 298 298 297 298 298 298 298 298 297 297 296 295 294 294 294 295 296 297 297 298 298 298 298 297 297 297 298 298 298 298 299 298 298 297 297 296 296 296 297 298 297 297 297 297 296 296 296 296 296 296 296 295 295 295 295 295 295 296 296 296 296 295 295 294 294 294 294 294 294 294
303 303 303 303 302 302 302 301 300 300 300 299 298 298 298 298 298 298 297 298 298 298 298 298 297 297 297 297 296 294 294 294 295 296 296 297 297 297 297 297 297 297 297 297 297 297 298 298 298 297 297 297 296 295 295 296 298 298 297 296 296 296 296 296 296 296 296 296 296 296 296 296 296 296 296 295 295 295 295 295 295 295 294 294 294 294 294
303 303 303 302 302 302 301 301 301 300 300 299 298 298 298 298 298 298 298 298 298 298 298 298 298 297 298 298 297 297 296 297 297 297 297 297 297 297 297 297 297 297 297 297 297 297 297 298 298 297 297 297 297 296 296 296 297 298 298 297 297 297 296 296 296 296 296 296 296 296 296 296 296 296 296 296 296 295 295 295 295 295 295 295 295 295 295
303 302 301 301 301 302 301 301 300 299 298 298 298 298 298 298 298 298 298 298 298 298 298 298 299 300 300 299 298 297 297 298 298 298 298 298 299 298 297 297 297 297 297 297 297 297 297 298 298 298 298 298 298 297 297 297 297 297 297 297 297 297 297 296 296 296 296 296 296 296 296 296 297 296 296 296 296 296 296 296 296 295 295 295 295 295 295
302 301 301 301 301 300 300 299 299 298 298 298 298 298 297 297 297 297 297 298 298 298 298 298 299 300 301 299 298 297 296 296 296 297 298 298 298 298 298 297 297 297 297 297 297 298 298 298 298 298 298 298 298 298 298 297 297 297 297 297 297 297 297 297 297 297 297 297 297 296 296 296 296 296 296 296 296 296 296 296 296 296 296 296 296 296 295
302 302 301 300 300 299 299 299 299 299 299 299 299 298 297 297 297 297 297 297 297 297 297 298 298 298 299 298 299 299 299 298 297 297 297 297 297 297 297 297 297 297 297 298 298 298 298 298 298 298 298 298 298 298 298 298 298 297 297 297 297 297 297 298 298 298 298 298 297 297 297 297 297 297 296 296 295 296 295 295 296 296 296 296 296 296 296
301 301 300 299 299 299 299 299 300 300 300 300 299 298 297 296 297 296 296 296 297 296 296 296 297 297 297 298 298 299 300 299 299 298 298 298 297 297 297 297 298 298 298 298 298 298 298 298 298 298 298 298 299 299 299 299 299 298 297 297 297 297 297 297 298 298 298 297 297 297 297 297 297 298 297 296 295 295 295 295 295 295 295 295 295 296 296
300 300 299 299 299 300 300 300 301 301 300 300 299 298 297 297 297 297 296 296 297 296 296 296 296 296 296 297 297 298 298 299 299 299 299 299 298 297 298 298 298 298 298 298 298 298 298 298 298 298 298 298 298 299 299 299 299 299 299 298 298 298 298 298 298 298 298 298 297 297 297 297 297 298 297 297 296 296 296 296 296 296 296 295 295 295 295
300 300 300 300 300 300 300 300 301 301 300 300 299 298 297 298 298 298 297 296 297 297 296 296 296 296 296 296 297 297 298 298 298 298 299 299 298 298 298 298 298 298 298 298 298 298 298 298 298 298 298 298 298 298 298 298 298 298 299 298 298 298 298 298 298 298 299 299 298 298 298 298 298 297 297 297 297 297 296 296 296 296 296 296 296 296 296
300 300 300 299 299 299 299 299 299 299 299 299 298 298 298 298 298 297 296 296 297 297 297 297 296 296 297 297 297 297 297 298 298 298 298 298 298 298 298 298 298 298 298 298 298 298 298 298 298 298 298 298 298 298 298 298 298 298 298 298 297 297 297 297 297 298 299 299 299 299 298 298 298 298 298 298 297 297 297 297 296 296 296 296 296 296 296
Wind_Speed
2 3 2 3 3 4 5 7 10 12 11 11 13 10 5 8 7 5 6 10 9 9 15 20 19 17 16 16 14 13 14 15 16 18 18 18 18 16 14 14 13 14 15 16 18 19 19 19 21 21 22 23 21 18 17 16 15 15 14 14 14 14 14 14 14 15 16 17 18 19 20 22 23 24 25 26 26 26 27 27 27 24 19 17 17 17 18
4 3 2 2 3 2 2 3 6 9 12 13 14 9 7 9 7 1 8 13 8 4 12 18 16 13 12 12 11 12 15 15 16 18 19 20 20 19 19 18 14 13 16 19 21 20 18 19 22 21 20 20 19 18 17 17 16 14 14 15 15 14 14 14 14 15 16 17 17 18 20 22 23 24 25 26 26 27 27 27 27 27 23 20 18 17 18
3 3 3 2 4 4 3 2 3 6 10 12 13 10 8 8 7 3 7 9 4 1 6 12 13 11 11 12 14 15 16 16 17 18 18 18 18 18 18 18 15 14 16 19 20 18 17 19 22 22 20 20 20 19 17 17 16 15 14 15 15 14 14 13 13 15 16 16 16 18 19 21 22 23 24 25 26 26 26 27 27 27 26 24 21 19 19
2 1 1 3 5 5 3 3 4 7 9 8 8 6 5 8 7 6 6 6 4 4 9 12 13 14 15 16 16 16 15 17 19 18 16 15 16 17 17 16 16 15 15 16 18 18 18 20 23 22 21 20 19 18 18 17 16 16 15 16 15 14 13 13 14 15 15 15 16 17 18 20 22 23 23 24 25 25 25 26 27 27 27 26 24 21 19
3 2 3 3 5 3 3 3 4 7 5 3 3 3 3 6 7 7 6 6 4 10 15 16 17 18 18 17 16 16 17 19 19 19 17 15 14 15 16 15 15 15 15 17 18 18 18 19 21 21 21 22 20 19 19 19 17 17 17 16 15 14 14 14 15 15 15 15 16 17 18 20 21 22 23 24 24 25 25 26 27 28 28 29 26 21 18
4 3 3 3 4 4 2 2 3 5 3 3 5 4 3 4 3 2 1 2 9 16 18 18 20 18 16 16 15 13 15 17 17 16 16 15 14 14 13 14 13 14 16 18 18 18 19 21 23 23 23 24 23 21 21 20 19 18 17 16 15 14 14 15 15 15 15 16 16 17 18 20 21 22 22 23 24 24 25 26 27 28 28 29 26 21 18
3 2 2 4 5 3 2 2 4 5 4 3 3 1 3 3 2 1 2 7 13 17 18 17 15 12 11 13 12 12 13 14 15 15 14 15 16 15 14 13 14 17 20 20 20 20 22 24 25 26 25 24 24 23 22 21 20 18 17 16 15 15 15 15 15 15 15 16 17 17 18 19 20 21 21 22 23 23 24 25 26 26 27 28 25 19 18
2 3 4 4 2 2 3 3 4 5 4 5 4 2 5 6 5 5 6 9 12 15 14 12 11 11 11 10 8 11 13 13 15 17 17 17 17 17 17 17 18 20 22 23 24 24 24 25 26 27 26 25 24 23 22 22 21 20 19 17 15 15 16 16 16 16 16 17 18 18 18 19 20 21 21 22 22 22 23 23 24 25 25 26 23 19 19
1 2 3 1 1 1 3 4 5 6 6 7 6 3 5 7 7 7 7 11 14 14 12 12 13 14 14 8 4 8 12 12 13 16 17 18 17 17 18 20 23 25 26 28 31 31 29 29 29 28 27 26 26 24 23 23 23 22 21 18 17 17 17 17 17 17 17 18 19 19 19 19 20 21 21 21 21 21 22 22 23 22 21 22 22 19 20
1 1 2 1 3 3 1 2 4 6 5 4 3 2 3 7 9 9 12 16 18 16 16 17 17 14 12 9 6 8 11 12 11 12 15 17 19 21 23 26 27 29 31 33 34 34 34 32 31 30 29 28 28 27 25 25 24 23 20 18 17 18 18 18 19 18 18 19 20 20 20 20 20 20 20 20 20 21 21 20 20 19 17 19 21 21 23
2 3 3 3 3 2 0 1 4 6 5 3 2 3 4 8 11 12 15 18 18 18 20 20 17 12 10 10 9 10 13 14 14 14 15 18 22 24 25 27 28 29 33 35 35 35 34 32 31 30 30 30 30 28 26 24 22 20 18 18 19 20 20 20 21 21 21 21 21 21 21 21 20 20 19 20 20 21 20 18 17 17 17 18 20 23 25
3 3 3 2 3 2 1 2 4 6 4 3 4 5 4 8 15 16 17 19 19 18 19 18 16 12 9 9 11 13 15 16 16 17 19 21 24 24 22 24 29 31 33 34 34 33 33 31 28 28 30 31 31 29 26 22 20 20 21 22 22 22 21 22 23 23 23 23 23 22 22 21 21 21 20 20 20 21 19 17 17 18 18 19 19 22 26
4 4 2 1 2 1 2 4 6 8 6 3 5 3 0 6 15 18 19 22 21 21 21 17 11 6 5 9 15 17 17 16 16 19 22 25 27 28 29 32 34 31 29 30 30 30 31 30 26 27 30 31 29 27 24 21 21 23 24 25 24 23 22 22 23 24 24 24 24 24 23 23 23 23 22 22 22 21 19 18 19 19 18 18 18 20 24
2 2 2 1 2 1 5 6 4 5 5 3 2 0 1 6 14 18 20 22 22 22 20 11 5 7 12 18 20 19 17 16 16 17 20 22 22 25 30 34 35 30 25 25 26 26 27 27 26 28 31 30 26 24 22 21 24 26 25 25 24 22 22 22 22 23 23 23 24 23 23 24 24 24 24 24 24 23 20 18 19 19 18 17 18 19 20
2 2 2 1 1 3 8 10 5 3 3 1 1 1 1 7 14 17 17 18 20 19 14 9 10 14 18 20 21 20 18 17 17 20 22 22 22 24 26 28 30 28 25 23 25 25 24 25 27 31 31 27 23 22 22 24 27 26 24 24 23 22 22 22 21 22 21 21 22 22 23 24 24 24 24 24 24 24 20 17 16 17 17 17 18 18 19
2 3 3 1 0 2 4 5 3 2 1 1 1 1 3 8 13 13 13 16 18 15 11 11 14 17 19 20 21 20 19 18 18 20 22 24 25 26 27 27 26 26 25 24 24 25 26 28 30 32 31 27 22 22 24 26 26 25 24 23 22 21 21 20 20 20 19 19 19 20 21 21 21 21 22 22 22 22 19 16 15 16 17 16 16 17 17
1 1 1 1 1 0 1 1 1 2 3 3 2 2 3 7 10 10 11 15 15 12 13 14 14 16 18 20 20 20 19 18 18 20 22 24 25 24 25 27 25 25 26 28 26 26 28 32 32 30 30 28 24 23 25 26 25 23 22 21 19 18 18 17 17 17 17 17 17 17 18 19 18 18 18 17 17 18 17 16 16 16 16 16 16 15 15
1 1 1 1 1 1 1 2 1 3 4 3 3 3 4 6 8 9 10 10 11 12 13 14 13 15 19 20 19 19 19 17 18 21 22 23 24 24 25 25 24 25 29 31 29 26 25 29 31 30 28 28 27 26 27 25 23 22 21 19 18 17 15 15 15 15 13 14 14 14 15 16 17 17 17 15 14 15 15 15 16 16 15 15 15 14 14
4 2 0 1 1 2 2 2 1 1 2 3 3 4 5 5 7 9 9 10 12 12 12 13 15 17 20 21 18 18 18 17 17 20 22 22 24 25 26 26 28 29 29 28 27 25 24 26 30 30 27 26 27 28 27 24 22 21 19 18 17 16 14 14 13 12 11 11 12 12 13 14 14 15 16 14 13 14 14 14 15 15 15 14 13 13 13
3 1 1 1 2 2 2 2 1 0 1 1 1 2 4 6 8 9 10 12 13 11 11 15 18 18 19 20 18 16 15 15 16 19 23 25 24 24 25 28 30 30 27 26 26 25 24 25 29 29 27 26 28 28 26 24 22 20 19 17 16 15 14 12 11 11 11 11 10 10 11 11 11 11 12 13 13 14 15 15 14 13 12 12 12 12 12
1 1 1 1 1 2 2 2 1 1 1 1 4 5 7 10 11 11 12 12 12 11 12 15 18 19 17 18 18 17 14 14 16 20 23 25 25 24 25 28 29 27 26 26 26 25 25 27 29 30 28 28 28 26 25 24 22 20 18 17 15 14 13 11 11 11 10 10 10 9 9 10 10 10 11 11 12 12 14 15 15 13 12 11 11 10 10
1 1 3 4 2 1 2 3 3 3 3 4 7 8 9 12 13 14 14 12 11 13 15 15 17 18 16 17 19 18 15 15 19 23 24 24 24 24 25 26 27 27 27 27 27 27 28 30 30 30 30 29 27 25 24 23 21 20 18 16 14 13 12 10 10 10 9 9 10 9 8 8 9 9 10 11 11 11 11 13 14 14 13 13 13 13 11
1 0 3 4 1 1 2 3 3 3 4 7 9 10 11 12 14 15 15 14 12 13 14 15 18 18 16 18 19 16 15 19 24 25 26 25 24 24 25 25 26 28 29 29 29 31 32 31 31 32 31 29 27 25 24 22 21 19 18 15 13 12 11 10 10 10 9 8 9 8 8 8 7 7 8 8 9 9 9 10 10 12 12 12 14 15 14
1 0 2 2 0 1 3 4 4 3 4 6 8 9 10 12 13 14 15 15 14 13 12 13 18 21 21 20 19 17 18 22 25 25 25 25 25 25 25 25 26 28 27 28 31 34 33 31 31 32 31 30 28 26 24 22 21 19 17 14 13 12 11 11 11 10 9 8 8 7 7 6 6 5 6 6 7 7 8 8 8 8 9 10 11 13 14
1 3 3 2 3 4 5 5 5 4 3 5 7 8 9 11 12 14 14 13 13 15 13 10 14 21 24 22 19 18 19 22 25 27 27 25 25 24 23 23 27 30 30 30 33 35 33 31 31 31 31 30 28 26 24 22 20 19 16 14 13 13 12 12 11 10 9 8 7 6 6 5 5 4 5 5 5 5 5 6 7 7 8 9 9 11 12
5 7 7 7 7 6 4 4 5 5 4 6 8 8 9 11 12 13 15 15 15 16 16 12 13 18 23 25 24 23 23 24 27 29 29 28 26 24 22 25 30 33 33 33 34 34 33 31 30 29 29 29 28 26 25 22 20 18 16 15 14 14 13 13 11 9 9 8 7 6 5 4 4 3 3 3 3 3 3 4 5 6 7 7 8 9 10
6 6 6 7 5 3 1 2 4 5 5 8 10 10 11 13 13 13 15 16 16 18 20 21 20 19 20 24 27 29 29 28 27 27 28 28 25 23 24 28 32 33 33 33 33 33 32 31 29 27 26 26 26 26 25 23 21 19 16 15 15 14 14 13 12 10 9 9 7 6 5 4 3 3 2 1 1 1 2 3 3 4 5 6 6 7 8
2 2 1 1 3 4 3 3 6 7 7 8 10 12 13 13 14 13 13 13 15 17 19 23 26 24 20 20 23 25 26 25 24 25 27 27 26 25 26 29 32 33 32 32 32 32 31 29 28 26 24 23 23 23 24 23 22 20 18 17 16 15 14 14 12 11 11 10 8 7 5 4 4 3 2 2 2 2 2 2 3 3 3 4 5 6 7
3 3 1 3 6 7 7 7 8 8 8 8 11 12 13 13 13 12 12 12 13 14 14 18 23 25 25 23 21 20 20 20 21 25 27 29 29 27 26 29 33 34 33 31 31 30 30 29 27 25 23 22 22 22 22 22 21 20 19 18 17 16 15 14 13 12 11 10 9 8 6 5 5 4 3 2 2 2 2 2 3 3 3 3 4 5 5
4 4 6 8 9 9 10 9 9 9 8 9 10 10 12 13 12 10 11 11 11 11 14 17 20 22 25 26 25 24 24 25 27 28 28 29 28 28 29 32 32 29 28 30 30 30 29 28 27 25 24 23 24 23 23 22 21 20 19 18 17 17 15 14 13 12 11 11 10 9 8 7 7 6 5 4 3 2 2 2 2 3 3 3 3 3 4
7 7 9 9 8 9 9 8 8 8 8 8 10 10 11 12 12 11 11 10 9 11 15 18 18 19 22 25 27 28 28 28 29 29 27 27 27 28 31 34 29 23 24 29 31 31 29 28 27 25 24 24 26 25 24 23 22 20 19 18 17 16 15 15 14 13 13 12 11 10 9 8 8 8 7 6 4 3 2 2 2 2 3 3 3 3 3
10 9 9 8 7 8 9 8 8 8 7 7 9 10 9 10 12 12 11 10 11 14 17 17 17 18 21 23 26 28 27 26 27 27 25 25 27 29 31 33 31 28 28 30 31 30 29 27 27 25 24 25 26 26 24 23 22 20 19 17 16 16 15 15 16 15 14 13 12 11 10 9 9 9 8 8 6 5 4 3 2 2 2 2 3 3 3
10 8 7 7 8 8 8 7 7 8 8 7 8 8 7 8 10 12 12 12 14 15 16 16 18 22 25 25 25 26 26 24 22 22 23 24 27 28 30 32 33 32 31 31 30 28 27 26 26 25 24 25 26 26 24 23 22 21 19 17 16 15 15 15 16 17 16 15 14 12 10 10 10 9 9 8 8 7 6 5 4 3 3 2 2 3 3
3 4 7 8 8 9 10 9 7 7 8 7 7 8 8 8 10 12 15 16 14 14 16 19 23 26 27 26 25 26 26 21 18 20 23 26 28 29 30 31 32 32 31 29 28 26 25 24 23 23 23 24 25 24 23 22 21 21 20 18 16 15 15 15 15 17 17 17 16 13 11 11 11 10 9 9 8 8 7 7 6 5 5 4 3 4 4
2 5 7 6 6 8 10 10 8 8 8 8 8 8 9 10 12 15 17 17 15 16 20 24 26 27 27 25 25 26 26 23 21 24 27 29 30 31 30 29 30 30 29 28 28 26 25 24 23 23 24 24 24 22 21 20 20 20 19 18 16 15 15 15 15 15 16 17 16 14 13 12 11 10 9 9 9 9 9 8 8 8 7 6 5 5 5
6 8 8 6 6 9 11 10 9 9 8 8 8 8 9 11 13 15 17 18 19 21 25 26 25 25 25 25 25 25 25 24 25 26 28 29 31 32 30 29 29 28 27 27 29 29 28 26 25 24 24 23 22 20 19 19 19 19 18 17 15 15 14 14 13 13 14 14 14 14 13 12 10 9 9 9 10 10 9 9 9 9 8 8 7 6 6
6 8 8 7 7 10 10 10 10 10 9 8 9 10 11 12 14 16 18 20 22 25 26 26 24 24 24 24 25 25 25 26 27 28 28 29 31 32 30 29 29 27 23 23 27 30 29 27 26 25 23 21 20 20 19 19 19 19 17 16 16 15 14 13 13 12 12 12 13 14 13 11 10 10 10 10 10 10 10 9 9 9 9 9 9 9 8
5 7 8 9 9 9 9 10 12 13 12 10 10 12 14 16 17 18 19 20 22 24 24 23 23 24 24 23 22 22 24 26 28 29 30 30 31 30 28 27 27 25 22 23 27 29 28 26 26 24 22 20 19 20 20 20 20 20 18 17 16 16 15 14 13 13 13 13 13 13 13 12 11 11 10 11 11 11 11 10 9 9 9 10 11 11 10
6 6 8 9 10 10 10 10 12 14 14 13 11 13 16 19 20 20 20 19 21 23 23 23 24 25 23 22 22 22 25 28 31 31 31 30 30 29 28 27 30 29 26 26 28 27 25 25 25 24 22 21 20 20 21 21 21 21 20 18 17 17 16 15 14 13 13 14 14 14 14 14 13 12 12 12 12 12 12 12 11 10 10 10 11 11 11
6 6 8 9 9 10 10 10 10 11 14 15 15 15 17 20 20 20 21 22 22 23 24 26 25 21 19 20 21 22 26 31 33 34 32 30 28 26 23 24 29 31 28 26 27 27 26 26 25 23 22 20 19 19 20 21 22 23 21 18 17 18 18 17 16 15 14 14 15 15 16 15 15 14 14 14 14 14 14 14 13 12 11 11 11 12 12
7 8 9 9 9 10 10 10 10 10 13 17 18 18 20 22 21 20 20 23 23 23 26 28 26 22 21 23 25 26 28 31 33 35 33 29 23 18 14 17 25 29 26 25 26 26 25 25 24 22 20 19 17 16 17 19 21 23 22 19 19 19 19 19 18 17 16 16 16 17 16 16 16 16 16 16 17 17 17 17 16 16 15 14 13 13 13
8 9 9 8 9 10 11 11 11 10 12 16 20 21 22 25 25 24 23 25 26 24 25 27 27 25 25 26 27 28 28 28 29 32 33 30 26 20 14 17 24 27 24 23 24 25 24 24 23 20 18 17 16 16 16 17 19 20 19 19 19 19 19 19 19 19 19 18 17 17 17 17 17 18 18 18 18 18 18 18 18 19 18 17 17 16 15
9 10 9 8 9 10 11 11 11 11 10 13 18 21 21 23 25 25 25 25 26 25 24 24 24 25 25 26 27 28 27 25 27 29 28 27 28 27 22 21 24 26 24 23 24 24 24 24 22 19 17 15 15 15 17 18 18 18 18 18 18 18 18 19 20 20 20 20 19 19 19 19 19 19 19 19 19 19 19 19 20 20 20 20 20 19 18
11 10 10 9 10 11 11 10 11 11 10 12 16 20 21 22 25 26 26 24 23 24 24 24 25 26 26 26 28 28 26 25 26 25 20 16 18 22 23 23 25 26 26 25 24 24 24 24 22 19 17 15 13 14 16 18 18 18 18 17 17 18 19 19 20 21 22 22 22 21 21 21 21 20 20 20 20 20 20 20 20 21 21 21 21 22 22
11 10 11 12 11 11 11 11 11 12 13 14 16 18 20 20 23 25 26 23 22 23 25 27 27 27 28 28 30 32 32 31 30 28 20 12 11 17 21 23 24 25 26 25 24 24 23 23 21 19 18 17 15 14 15 16 18 19 19 18 18 19 19 20 21 22 22 22 22 21 21 21 21 21 22 22 22 22 22 22 22 22 22 23 23 24 24
10 10 12 13 12 11 12 13 15 17 17 15 12 12 15 18 20 23 25 26 25 25 28 30 30 30 31 32 32 32 32 31 31 32 28 21 19 21 24 24 23 24 26 25 24 23 22 21 20 18 18 18 18 18 17 17 17 18 19 20 20 20 21 21 22 22 22 22 23 23 23 23 23 23 24 24 24 25 25 25 25 25 25 26 26 26 26
11 10 10 10 10 11 13 16 18 18 16 12 8 9 13 18 19 21 24 26 27 27 29 30 31 31 32 33 32 31 28 24 22 25 28 27 23 23 25 25 24 24 24 24 23 22 20 19 18 18 17 18 19 19 20 20 20 20 21 21 21 21 22 22 22 22 22 22 23 23 24 25 25 25 25 25 25 26 26 26 27 28 28 28 29 29 30
11 10 10 11 12 14 16 16 15 13 11 11 11 13 16 18 18 17 18 20 22 23 25 27 28 29 31 33 33 34 32 25 18 18 25 28 25 22 23 25 25 23 22 21 20 19 19 18 18 17 16 17 18 20 21 22 22 22 23 23 24 24 24 24 24 23 23 23 23 23 24 25 26 26 26 26 26 26 26 27 28 28 29 30 31 31 32
11 12 12 13 13 13 14 13 10 9 10 11 12 15 18 17 14 13 14 16 17 18 20 22 23 26 29 30 31 32 33 29 22 20 24 28 26 23 23 24 24 23 22 20 19 19 18 18 18 17 16 16 17 19 21 22 23 23 23 24 24 25 26 26 26 26 25 25 25 25 25 26 27 27 27 27 27 26 26 26 27 27 28 30 31 32 33
12 12 12 12 12 13 14 12 10 10 11 11 12 16 19 17 12 11 13 15 15 15 16 17 19 22 26 28 28 28 29 28 25 22 21 24 25 25 23 23 23 23 23 22 21 20 19 19 19 19 17 16 15 15 16 18 19 20 21 22 23 24 25 26 26 27 27 26 26 26 26 26 27 28 28 29 29 29 28 27 27 27 28 30 31 31 30
14 13 13 13 15 18 18 16 15 16 18 17 18 21 22 18 15 16 18 18 16 14 13 12 15 20 23 25 27 27 27 27 26 23 20 20 23 25 25 24 23 22 22 22 22 22 22 21 21 20 20 19 18 16 15 15 16 18 19 21 22 24 25 26 26 27 26 26 27 27 27 26 27 27 28 29 30 30 30 29 28 28 28 29 29 28 26
15 14 14 14 13 13 13 11 12 16 18 19 21 24 23 17 12 13 17 18 18 18 17 15 16 20 24 25 26 26 26 26 25 23 21 19 20 23 25 26 25 24 24 23 23 23 22 22 22 22 22 22 22 21 20 20 20 21 23 23 24 26 27 27 27 27 26 26 27 29 28 26 25 26 27 27 27 28 28 27 27 27 27 27 27 26 25
Wind_Direction
127 70 100 140 165 179 178 181 183 182 177 181 199 209 161 148 199 218 153 167 186 181 183 187 181 171 165 160 156 150 145 144 142 143 143 140 140 141 141 143 138 128 128 130 131 135 133 121 112 112 116 120 120 116 115 115 113 112 109 103 99 93 88 84 82 82 79 75 73 74 76 75 74 74 72 71 69 67 66 65 62 59 54 49 47 43 40
94 45 16 135 159 143 139 192 201 190 185 192 205 207 167 180 217 154 148 184 198 180 189 188 177 164 150 138 139 142 142 144 144 145 146 146 146 148 149 149 143 130 130 133 135 137 132 121 116 117 118 120 120 118 118 120 117 115 114 108 101 96 90 87 88 88 84 80 78 79 80 79 77 76 74 73 71 69 67 66 63 60 57 52 48 43 40
90 33 14 110 165 161 153 200 244 212 196 198 208 204 177 193 215 139 150 186 208 215 173 163 155 149 140 141 149 149 149 151 150 149 149 146 146 148 149 147 140 130 130 133 134 131 127 123 120 121 122 123 122 121 121 121 120 119 118 111 104 98 94 93 94 92 88 84 84 84 84 82 79 77 75 73 71 69 67 64 62 59 56 53 49 43 39
134 84 228 169 144 127 156 207 213 203 198 199 209 203 181 192 185 140 151 194 210 173 151 146 149 151 150 154 155 153 156 157 155 153 150 145 145 147 146 141 136 135 133 130 128 129 130 128 125 125 126 122 120 121 122 122 122 122 118 112 107 101 97 97 97 95 92 89 89 90 88 84 81 78 76 74 71 68 66 63 61 59 55 53 49 43 38
156 180 233 197 142 139 221 217 185 194 201 194 201 212 214 203 175 152 185 218 182 157 153 151 156 161 162 164 162 160 161 160 158 154 148 144 144 144 141 138 138 138 133 129 130 134 133 126 123 126 126 124 122 123 124 123 122 120 115 111 107 102 99 100 99 98 96 94 94 94 91 87 83 79 76 74 71 68 66 63 61 58 55 53 50 43 36
171 203 251 221 195 211 220 145 165 199 216 196 194 210 233 215 188 160 214 136 134 153 164 165 166 167 166 165 162 156 154 157 154 147 143 144 145 140 135 137 138 132 128 128 128 126 123 121 123 126 126 125 125 125 125 123 120 116 111 107 104 101 100 102 102 100 98 98 97 96 93 89 84 80 76 74 71 68 65 62 60 57 54 52 49 42 35
151 174 213 207 209 205 147 163 195 205 218 204 187 269 268 228 242 269 183 150 152 164 172 169 164 157 146 147 149 144 146 150 145 141 146 151 148 142 140 143 140 132 130 129 124 121 123 126 126 126 125 125 125 124 124 122 118 115 110 106 103 103 103 103 103 101 100 100 99 96 94 90 84 80 78 75 72 69 65 63 60 56 53 51 47 41 35
142 158 192 205 207 115 131 164 163 153 176 181 170 230 237 215 222 226 192 169 163 161 157 150 140 129 123 123 134 147 150 152 151 153 158 159 154 150 148 144 138 133 131 130 128 127 128 127 125 124 126 128 126 125 125 122 119 116 111 106 103 103 103 102 101 101 100 100 98 94 93 89 85 82 79 76 74 71 67 65 61 57 53 50 46 41 36
175 156 181 226 297 201 162 173 174 161 167 177 178 218 218 192 203 215 180 159 157 149 134 128 126 123 120 116 139 164 163 162 161 157 154 150 145 139 135 130 129 131 131 131 132 133 132 130 129 129 131 131 128 126 125 122 118 115 110 106 105 104 102 101 101 101 99 98 96 93 91 88 84 83 81 78 77 74 69 66 62 58 52 49 47 44 39
186 144 171 212 243 229 180 161 178 159 146 168 186 249 215 180 190 199 174 158 153 144 135 136 134 126 128 144 172 181 170 158 141 132 132 132 129 128 129 129 130 132 134 134 136 137 134 131 132 133 133 131 128 125 123 119 116 113 109 106 105 104 102 102 103 101 99 97 95 92 90 87 85 85 83 80 78 76 72 68 62 58 53 49 50 48 45
158 172 183 189 213 231 350 95 156 147 134 138 175 238 225 177 172 183 175 161 153 149 146 145 143 140 155 175 180 174 164 150 135 129 127 125 127 132 135 135 135 135 135 136 137 135 132 131 133 134 133 131 128 125 122 119 115 111 109 108 106 105 104 103 103 100 98 97 94 90 89 89 89 88 85 83 81 78 74 69 62 59 56 53 52 50 48
161 179 177 200 227 220 125 135 154 154 140 126 175 214 218 161 162 173 174 166 160 156 153 154 159 165 177 178 163 153 148 142 137 136 132 129 131 132 130 131 133 134 135 136 135 134 134 135 137 137 136 133 129 126 123 120 115 113 113 111 109 107 106 103 101 98 96 95 93 91 91 91 91 90 87 86 85 80 74 70 65 63 60 56 54 51 49
165 182 177 234 244 190 121 137 155 160 153 157 193 204 39 160 167 170 172 172 168 165 164 166 172 171 122 110 122 131 136 137 137 136 134 135 137 137 138 138 137 135 135 136 136 137 139 140 141 141 139 134 129 128 126 122 119 119 118 115 113 110 106 102 99 97 94 93 93 92 93 92 90 89 87 86 85 80 75 72 69 65 61 57 55 52 49
148 178 169 230 261 158 124 129 151 181 174 168 205 286 346 191 178 170 171 173 171 172 171 163 136 109 103 110 122 131 134 133 132 129 126 124 127 132 138 141 140 136 134 135 136 138 142 144 145 144 139 134 131 131 129 127 127 126 122 118 114 109 106 103 101 98 96 95 94 93 93 92 89 86 84 82 82 79 76 73 68 64 60 57 55 52 48
114 117 137 171 258 166 143 135 139 220 206 150 341 324 213 191 182 174 173 172 171 171 162 132 117 120 118 123 132 135 133 130 129 131 129 127 128 132 137 142 142 138 135 136 137 140 145 147 147 145 140 135 136 136 135 135 134 129 125 121 115 110 108 105 104 103 100 98 96 93 92 91 88 85 82 78 77 75 72 69 65 61 57 53 52 51 48
168 154 167 180 84 150 159 144 143 221 233 20 321 245 158 173 178 176 173 173 171 163 141 127 132 130 128 133 137 136 135 134 133 134 135 136 138 140 141 144 144 140 137 138 139 143 149 151 150 148 144 141 140 140 140 141 138 132 128 125 119 115 113 110 108 107 104 101 99 95 93 91 87 83 81 76 73 71 67 64 62 58 54 51 50 49 46
200 188 201 248 37 138 274 342 347 307 322 332 290 236 179 174 175 170 170 170 163 145 132 134 135 132 133 137 138 137 138 137 136 137 140 141 142 143 144 146 145 142 140 141 142 146 152 154 153 152 149 146 143 143 145 145 142 138 134 130 126 123 120 117 114 111 108 106 104 100 96 92 86 82 79 74 70 67 63 61 60 57 53 50 49 47 44
214 259 304 349 314 309 336 0 332 304 312 311 261 220 190 173 166 162 163 156 140 132 137 139 136 136 137 136 138 139 138 136 137 138 139 141 142 143 145 145 144 142 143 144 145 146 152 156 157 156 153 149 147 147 149 147 144 142 140 137 134 132 127 125 122 117 114 112 108 105 100 93 87 83 78 73 68 64 61 59 58 56 53 49 46 44 42
178 203 48 354 297 315 341 344 323 290 286 278 250 209 175 156 153 153 144 130 128 135 140 136 134 138 138 136 138 140 139 138 139 139 140 144 147 148 147 147 146 144 144 145 147 148 151 157 160 158 155 151 149 150 151 149 146 145 144 142 140 137 133 131 128 123 121 118 112 109 103 95 89 83 78 73 67 62 59 57 55 53 51 47 43 40 37
176 219 29 349 309 303 308 315 319 215 254 261 170 136 121 118 128 132 127 127 134 139 139 136 136 139 141 140 138 138 140 140 140 142 145 148 149 148 146 147 149 147 145 147 149 149 152 158 161 159 156 154 154 154 153 152 150 149 148 147 145 142 139 136 133 129 125 121 117 111 105 99 93 85 79 75 69 65 63 61 58 53 49 46 40 36 33
120 280 180 174 287 277 249 236 206 232 251 143 117 117 118 119 122 125 127 133 139 140 139 139 137 138 142 142 138 137 139 139 141 145 147 148 147 146 146 148 150 149 148 149 150 151 155 161 162 161 159 158 158 157 157 157 156 155 154 153 150 147 146 142 139 135 128 123 121 115 109 104 97 90 85 80 76 73 69 66 65 61 55 49 41 36 34
104 214 175 167 171 208 200 190 178 193 203 155 134 134 137 136 135 135 133 134 138 140 140 140 138 138 142 144 142 140 140 141 142 144 144 144 144 146 147 149 149 150 151 152 152 154 159 162 163 162 161 160 160 161 161 162 162 162 160 159 158 156 156 153 148 143 135 129 126 119 114 109 100 92 88 82 79 78 72 67 65 62 58 53 47 44 43
21 0 154 156 145 19 132 152 148 162 178 159 148 150 152 148 145 142 138 137 141 143 143 143 141 139 141 144 143 140 140 142 142 142 143 144 144 147 149 149 149 151 153 154 156 159 162 163 163 163 163 162 163 164 164 165 166 166 165 164 163 163 164 161 157 152 146 140 134 126 117 112 105 98 92 84 78 76 72 68 65 60 56 52 48 47 48
6 52 135 145 9 37 105 121 120 139 170 160 149 149 153 152 151 147 142 141 143 144 143 144 142 140 141 143 140 137 139 141 140 140 142 142 144 147 150 150 151 152 152 155 159 163 164 165 165 165 166 167 166 167 168 169 168 168 168 168 167 167 167 164 160 157 154 149 144 136 127 119 111 103 99 92 82 73 69 66 64 62 58 53 49 47 46
83 100 108 107 87 92 104 105 100 106 135 144 139 141 147 150 150 147 142 138 139 139 137 137 140 139 138 136 133 130 131 136 138 138 137 138 143 147 148 149 152 155 156 159 163 166 167 167 167 169 170 171 171 171 172 172 172 171 173 173 172 172 172 169 166 164 161 156 152 145 136 129 122 107 97 93 83 76 74 67 62 62 59 56 54 50 46
107 113 108 97 90 97 108 108 107 113 127 135 133 132 137 140 141 142 141 138 136 136 133 130 135 139 138 136 135 132 129 130 133 134 134 137 144 148 149 150 155 159 161 163 165 168 169 170 171 172 174 176 177 177 177 176 177 177 179 180 179 178 176 174 172 171 169 167 165 161 154 149 141 125 106 94 82 73 73 66 58 53 48 46 51 52 49
111 118 110 98 99 119 133 92 111 127 132 133 133 132 134 133 129 127 131 131 130 132 133 133 135 136 135 134 134 132 131 130 129 132 137 141 146 150 153 156 158 160 162 164 167 169 171 172 174 176 178 181 183 184 185 185 184 184 186 187 185 183 182 180 179 178 176 175 176 178 178 177 176 177 178 169 141 49 40 38 35 37 34 32 35 43 48
56 346 324 131 141 146 128 96 111 125 127 131 135 133 130 128 124 123 125 127 127 129 133 136 137 135 133 131 130 130 132 132 132 137 144 149 151 153 157 159 160 161 163 166 169 170 173 176 177 178 181 185 186 186 188 190 189 190 191 191 190 189 188 186 185 184 183 185 190 194 199 202 206 216 231 244 255 280 313 336 346 359 11 16 23 34 43
13 0 44 103 111 117 116 111 114 120 121 126 131 132 132 131 128 128 129 129 128 128 132 137 139 138 137 136 135 134 133 134 137 143 148 152 156 160 162 162 162 164 166 168 170 173 176 179 180 182 184 186 184 182 183 185 187 189 190 191 192 192 191 190 191 190 191 196 201 207 215 224 231 240 251 262 281 297 303 311 325 334 340 352 10 27 36
48 59 84 99 109 119 123 121 122 125 128 130 132 135 137 133 127 125 128 127 127 128 130 134 139 142 142 142 144 144 143 143 144 147 151 156 162 167 166 163 161 162 165 168 172 176 178 180 182 184 185 184 182 180 180 181 183 185 188 190 193 194 194 193 193 196 201 206 211 218 228 237 245 254 259 263 277 298 313 334 354 1 1 3 10 20 25
90 84 93 102 111 118 119 121 125 128 130 133 133 133 133 130 126 127 130 128 128 130 131 133 139 144 146 147 147 147 146 145 146 150 156 164 168 170 168 165 161 160 165 171 175 178 179 182 185 185 184 183 183 183 183 183 185 187 190 192 195 199 201 201 200 204 209 214 219 225 234 244 253 258 257 257 261 265 271 301 350 15 22 22 19 18 19
97 89 93 99 108 115 119 125 130 128 129 134 131 128 129 129 128 131 133 132 133 137 138 138 140 141 142 143 144 144 145 146 150 154 160 166 168 169 170 170 170 169 172 176 178 180 181 184 186 187 187 187 187 188 189 190 191 193 195 197 200 204 207 209 210 213 216 221 227 231 236 244 252 256 254 251 249 250 258 270 290 327 354 9 15 12 10
112 114 126 131 129 129 130 134 133 130 131 132 126 123 127 130 131 134 135 133 134 138 140 140 139 139 140 141 142 143 144 146 151 156 159 163 167 169 171 173 175 176 178 181 183 184 187 188 189 191 191 191 191 194 196 199 201 203 204 204 206 210 213 216 218 219 222 225 231 234 237 242 250 254 251 244 239 243 253 262 269 282 297 316 338 347 343
121 149 160 157 150 143 142 142 139 133 130 127 125 125 128 131 133 134 135 135 137 140 141 140 140 140 142 143 144 146 148 150 155 159 162 165 168 169 170 174 177 178 180 183 185 186 188 188 188 189 190 191 193 197 201 205 209 211 212 214 216 219 222 223 223 223 225 227 231 234 238 244 251 251 245 237 236 243 253 262 269 273 275 282 297 313 319
92 116 130 138 140 139 138 137 138 136 133 132 133 133 134 136 137 137 139 142 143 142 141 143 145 146 147 149 151 153 157 160 162 163 164 166 168 169 170 171 173 174 176 180 183 184 183 183 183 185 187 190 193 196 200 203 206 209 214 218 220 222 225 226 225 226 227 228 230 233 238 246 251 247 237 232 237 245 255 267 278 279 272 268 277 296 308
122 118 116 120 133 138 136 134 135 136 133 132 134 134 135 138 140 140 142 144 144 143 144 147 148 149 152 155 158 160 161 160 159 160 163 165 167 169 169 169 169 171 174 179 184 185 184 183 183 185 188 191 195 198 199 200 201 205 210 214 215 215 216 217 220 224 227 229 229 231 237 244 246 241 238 238 242 248 256 267 282 287 275 263 264 279 292
124 124 123 124 133 138 135 129 129 127 122 122 127 130 130 132 134 137 140 142 144 148 150 150 151 154 157 159 160 159 158 158 158 160 162 163 165 166 167 168 171 172 175 182 188 189 187 186 186 188 192 196 199 199 197 197 199 202 205 208 208 208 207 209 214 221 224 224 225 228 234 239 240 240 241 243 246 251 258 265 279 288 280 266 265 272 280
105 113 121 125 129 131 128 126 127 126 121 117 121 128 132 134 135 136 137 141 148 153 153 152 151 151 151 152 153 153 155 158 160 160 160 161 163 165 166 169 174 177 181 187 190 191 192 192 192 193 199 204 203 199 195 195 199 202 205 207 208 206 206 209 215 222 224 222 223 229 235 239 242 243 244 246 249 254 260 265 275 285 281 271 267 270 275
113 113 122 125 124 121 120 124 130 132 130 128 125 128 134 137 138 137 138 142 150 154 152 149 146 145 145 148 151 155 159 161 162 161 161 161 164 166 169 176 181 184 186 190 190 192 196 197 196 198 203 206 205 201 198 197 200 204 208 211 211 212 213 214 218 225 228 226 227 232 237 241 245 247 250 253 255 257 260 263 270 278 280 275 270 268 272
132 134 135 132 128 127 128 130 131 133 134 135 134 135 138 139 137 136 138 144 151 154 153 150 146 145 147 151 153 158 164 165 164 163 162 163 165 166 170 179 185 187 189 192 192 192 194 194 194 198 202 204 205 206 204 203 204 206 209 213 216 219 221 221 222 226 230 229 229 233 237 242 247 252 255 259 261 261 261 262 265 270 275 276 273 271 271
139 142 141 137 134 133 132 131 129 131 135 139 141 142 144 144 141 138 140 147 152 156 156 155 152 152 155 158 160 163 166 166 166 165 164 163 162 162 167 182 189 190 191 192 191 191 192 192 194 197 199 201 204 207 208 208 208 209 213 220 224 225 226 226 225 227 230 230 231 234 238 243 249 254 259 263 264 264 264 263 264 266 269 270 271 272 271
141 142 141 137 136 135 133 132 133 134 137 142 146 148 150 151 151 148 148 152 155 158 160 161 159 158 158 159 160 161 163 165 166 168 169 170 171 172 175 185 189 190 190 190 189 191 193 195 196 197 199 203 208 211 213 214 214 215 219 224 226 227 228 229 229 230 232 233 236 240 244 248 254 258 262 266 267 267 267 266 265 266 268 268 269 271 271
148 146 144 141 140 138 135 135 136 134 134 143 149 151 153 155 154 151 151 153 157 159 160 159 157 156 156 156 157 159 163 166 168 169 172 178 183 185 185 185 185 187 188 189 190 193 195 197 198 200 203 207 211 215 216 218 219 221 224 226 227 228 230 232 233 235 236 239 243 247 250 254 257 260 262 265 267 268 269 269 268 269 269 270 270 271 271
151 151 149 147 144 140 137 137 138 136 138 146 153 154 154 155 156 155 155 155 157 159 159 156 155 157 158 159 161 164 167 169 171 171 170 174 185 191 192 189 186 188 192 194 194 195 198 199 201 204 207 208 211 213 215 217 219 220 223 225 226 229 232 235 237 239 241 245 249 252 255 258 260 261 263 265 267 268 269 269 270 271 272 272 272 272 272
155 155 151 148 147 147 147 148 149 148 147 148 151 155 158 159 160 160 160 158 158 161 162 162 162 163 165 169 174 177 178 177 178 178 175 172 185 196 197 194 192 194 198 200 199 199 201 203 206 208 210 212 214 214 215 217 219 221 223 226 229 232 235 237 239 241 244 247 251 255 258 262 264 266 268 270 270 271 271 270 270 272 272 273 273 273 273
153 155 155 153 154 155 156 156 155 152 147 141 141 152 162 163 164 165 166 166 166 168 169 170 171 173 177 180 182 182 180 181 185 188 189 192 199 202 201 199 198 198 200 202 204 204 205 207 209 211 214 217 220 221 223 223 223 224 226 229 232 235 237 239 242 245 248 251 255 258 261 265 267 270 273 274 274 274 274 274 273 273 272 272 273 273 273
153 155 157 154 149 147 149 150 148 146 144 142 144 159 169 171 171 172 173 173 174 174 175 176 178 182 186 187 185 182 179 180 186 192 196 199 203 205 204 202 202 202 202 205 208 209 209 211 213 215 217 220 222 225 229 230 230 231 231 232 235 238 241 244 247 250 253 257 261 263 265 267 269 272 275 276 276 276 277 276 276 275 274 274 274 274 274
154 155 155 151 147 146 148 149 147 149 158 165 165 167 172 175 175 173 174 175 176 177 179 181 183 185 188 189 190 191 191 189 188 195 200 202 205 207 206 204 205 205 205 207 208 210 212 215 218 220 224 228 230 232 233 233 233 234 235 236 239 242 245 247 250 253 257 263 267 269 270 270 271 273 275 275 276 277 279 280 279 278 278 278 277 277 277
152 151 151 149 148 149 151 152 155 165 172 169 166 168 172 172 168 168 172 175 176 179 182 185 186 187 189 190 193 197 198 198 199 204 207 208 210 211 209 206 207 208 209 211 213 214 215 218 220 224 230 237 240 238 236 234 234 236 238 240 243 246 248 251 253 256 261 265 269 270 271 271 270 271 271 271 271 273 276 279 279 280 280 281 281 281 281
144 147 151 155 158 163 166 169 173 176 172 168 168 171 171 167 164 170 177 178 178 180 184 187 190 192 193 192 194 197 199 200 203 209 212 213 214 214 211 209 209 211 213 216 219 220 221 222 224 227 234 242 245 240 234 233 235 238 242 245 249 252 254 257 258 260 262 265 266 268 269 271 271 271 271 269 269 271 273 276 278 280 281 283 284 285 285
160 164 168 172 175 177 178 181 183 183 180 179 178 177 176 175 177 182 183 181 180 179 179 184 192 196 196 195 196 200 201 201 204 209 213 214 214 213 212 211 213 215 217 220 223 225 227 229 230 233 239 245 248 248 244 242 243 246 249 253 256 259 262 263 264 264 265 265 265 265 267 270 272 274 274 273 272 272 273 275 277 280 283 285 287 288 288
173 174 173 171 172 175 179 183 188 188 185 183 182 181 181 178 173 175 182 186 186 185 185 187 195 202 203 202 203 206 208 208 210 213 215 215 214 214 214 215 215 217 220 223 226 228 232 235 238 242 246 249 253 256 256 255 255 256 258 261 264 266 267 268 268 268 268 266 265 263 264 266 271 275 278 278 277 275 273 273 275 279 283 286 287 286 284